Alpena, MI

8:53 AM EDT on May 27, 2018 (GMT -0400)
Alpena County Regional

Weather History for KAPN - October, 2013

Change the Weather History Date:

Monday, October 14, 2013

  Actual Average Record
Temperature  
Mean Temperature 45 °F 47 °F  
Max Temperature 58 °F 57 °F 82 °F (1920)
Min Temperature 32 °F 37 °F 20 °F (1934)
Degree Days  
Heating Degree Days 20 18  
Month to date heating degree days 147 223  
Since 1 July heating degree days 531 580  
Cooling Degree Days 0 0  
Month to date cooling degree days 0 0  
Year to date cooling degree days 343 289  
Moisture  
Dew Point 37 °F    
Average Humidity 72    
Maximum Humidity 100    
Minimum Humidity 43    
Precipitation  
Precipitation 0.00 in 0.09 in 1.16 in (1941)
Month to date precipitation 2.36 1.27  
Year to date precipitation 26.02 22.97  
Snow  
Snow 0.00 in 0.10 in - ()
Month to date snowfall 0.0 0.1  
Since 1 July snowfall 0.0 0.1  
Snow Depth 0.00 in    
Sea Level Pressure  
Sea Level Pressure 30.40 in    
Wind  
Wind Speed 3 mph (North)    
Max Wind Speed 12 mph    
Max Gust Speed 14 mph    
Visibility 10 miles    
Events      
T = Trace of Precipitation, MM = Missing Value Source: NWS Daily Summary

Daily Weather History Graph

Daily Weather History Graph

Search for Another Location

Airport or City:

Astronomy

Oct. 14, 2013 Rise Set
Actual Time 7:49 AM EDT 6:50 PM EDT
Civil Twilight 7:19 AM EDT 7:20 PM EDT
Nautical Twilight 6:45 AM EDT 7:54 PM EDT
Astronomical Twilight 6:11 AM EDT 8:28 PM EDT
Moon 4:29 PM EDT (10/14) 2:52 AM EDT (10/14)
Length of Visible Light 12h 00m
Length of Day
11h 01m
Waxing Gibbous, 79% of the Moon is Illuminated
Oct 14
Waxing Gibbous
Oct 18
Full
Oct 26
Last Quarter
Nov 3
New
Nov 10
First Quarter

Hourly Weather History & Observations

Time (EDT) Temp. Windchill Dew Point Humidity Pressure Visibility Wind Dir Wind Speed Gust Speed Precip Events Conditions
12:54 AM 45.0 °F 43.5 °F 42.1 °F 90% 30.40 in 10.0 mi WNW 3.5 mph - N/A   Clear
1:54 AM 42.1 °F 40.2 °F 39.9 °F 92% 30.41 in 10.0 mi West 3.5 mph - N/A   Clear
2:54 AM 42.1 °F 39.2 °F 39.9 °F 92% 30.43 in 10.0 mi WNW 4.6 mph - N/A   Clear
3:54 AM 41.0 °F 38.0 °F 37.9 °F 89% 30.43 in 10.0 mi WNW 4.6 mph - N/A   Partly Cloudy
4:54 AM 37.9 °F 35.5 °F 36.0 °F 93% 30.44 in 10.0 mi West 3.5 mph - N/A   Clear
5:54 AM 37.9 °F 35.5 °F 35.1 °F 89% 30.44 in 10.0 mi WNW 3.5 mph - N/A   Clear
6:54 AM 37.9 °F - 36.0 °F 93% 30.45 in 10.0 mi Calm Calm - N/A   Clear
7:54 AM 34.0 °F - 33.1 °F 96% 30.45 in 10.0 mi Calm Calm - N/A   Clear
8:54 AM 39.0 °F - 37.0 °F 93% 30.45 in 10.0 mi Calm Calm - N/A   Clear
9:54 AM 46.0 °F 44.8 °F 39.9 °F 79% 30.45 in 10.0 mi Variable 3.5 mph - N/A   Clear
10:54 AM 53.1 °F - 43.0 °F 69% 30.45 in 10.0 mi North 6.9 mph - N/A   Clear
11:54 AM 55.0 °F - 39.0 °F 55% 30.43 in 10.0 mi NNE 6.9 mph - N/A   Scattered Clouds
12:54 PM 55.9 °F - 37.9 °F 51% 30.43 in 10.0 mi ENE 8.1 mph - N/A   Clear
1:54 PM 57.0 °F - 36.0 °F 45% 30.41 in 10.0 mi Variable 4.6 mph - N/A   Clear
2:54 PM 57.9 °F - 37.0 °F 46% 30.40 in 10.0 mi NNE 5.8 mph - N/A   Clear
3:54 PM 57.9 °F - 37.9 °F 47% 30.39 in 10.0 mi NNE 5.8 mph - N/A   Clear
4:54 PM 57.0 °F - 36.0 °F 45% 30.37 in 10.0 mi NE 4.6 mph - N/A   Clear
5:54 PM 54.0 °F - 37.0 °F 53% 30.37 in 10.0 mi NE 6.9 mph - N/A   Clear
6:54 PM 46.9 °F - 37.0 °F 68% 30.37 in 10.0 mi ENE 3.5 mph - N/A   Clear
7:54 PM 45.0 °F - 37.0 °F 74% 30.37 in 10.0 mi Calm Calm - N/A   Clear
8:54 PM 39.0 °F - 36.0 °F 89% 30.36 in 10.0 mi Calm Calm - N/A   Clear
9:54 PM 36.0 °F - 33.1 °F 89% 30.35 in 10.0 mi Calm Calm - N/A   Clear
10:54 PM 35.1 °F - 33.1 °F 92% 30.33 in 10.0 mi Calm Calm - N/A   Clear
11:54 PM 34.0 °F - 32.0 °F 92% 30.32 in 10.0 mi Calm Calm - N/A   Clear